Flag for Germany Weather past 2 weeks in Neustrelitz, Mecklenburg-Western Pomerania, Germany

Now
42 °F

Overcast.


Feels Like: 40 °F
Forecast: 42 / 50 °F
Wind: 5 mph from Southwest

Location: Neuruppin

Current Time: Dec 21, 2014 at 8:08:34 PM

Latest Report: Dec 21, 2014 at 7:00 PM


Visibility: 6 mi

Pressure: 30.09 "Hg

Humidity: 88%

Dew point: 39 °F

Location of NeustrelitzLocation

Historic Weather in Neustrelitz — Graph

°F

Neustrelitz temperature yesterday

Maximum temperature yesterday: 44 °F (at 11:00 AM)
Minimum temperature yesterday: 33 °F (at 3:00 PM)
Average temperature yesterday: 40 °F

Past Weeks' High & Low Weather Summary

 TemperatureHumidityPressure
High53 °F (Dec 18, 11:00 PM)100% (Dec 7, 1:00 AM)30.37 "Hg (Dec 7, 1:00 AM)
Low31 °F (Dec 9, 1:00 AM)75% (Dec 20, 6:00 AM)29.32 "Hg (Dec 12, 6:00 PM)
Average39 °F91%29.89 "Hg
* Reported Dec 6 7:00 PM — Dec 21 7:00 PM, Neustrelitz, Weather by CustomWeather, © 2014

Note: Actual official high and low records may vary slightly from our data, if they occured in-between our weather recording intervals... More about our weather records

Advertising

Neustrelitz weather history for previous 24 hours

 ConditionsComfort  
Time TempWeatherWind HumidityBarometerVisibility
7:00 PM
Dec 21
42 °FOvercast.5 mph88%30.09 "Hg6 mi
6:00 PM43 °FOvercast.5 mph85%30.10 "Hg6 mi
5:00 PM42 °FOvercast.5 mph89%30.12 "Hg6 mi
3:00 PM43 °FOvercast.5 mph85%30.17 "Hg6 mi
2:00 PM43 °FOvercast.5 mph85%30.19 "Hg6 mi
1:00 PM42 °FOvercast.5 mph85%30.21 "Hg6 mi
12:00 PM41 °FOvercast.5 mph88%30.21 "Hg6 mi
11:00 AM40 °FOvercast.5 mph89%30.22 "Hg6 mi
9:00 AM38 °FScattered clouds.3 mph91%30.20 "Hg6 mi
8:00 AM39 °FOvercast.5 mph90%30.19 "Hg6 mi
7:00 AM40 °FPassing clouds.5 mph85%30.15 "Hg6 mi
6:00 AM41 °FOvercast.5 mph84%30.13 "Hg6 mi
5:00 AM41 °FOvercast.6 mph85%30.09 "Hg6 mi
3:00 AM39 °FOvercast.5 mph90%30.04 "Hg6 mi
2:00 AM38 °FOvercast.6 mph89%30.01 "Hg6 mi
1:00 AM38 °FOvercast.6 mph88%29.98 "Hg6 mi
12:00 AM39 °FOvercast.8 mph85%29.95 "Hg6 mi
11:00 PM
Dec 20
38 °FPassing clouds.6 mph86%29.93 "Hg6 mi
9:00 PM38 °FPassing clouds.7 mph86%29.85 "Hg6 mi
8:00 PM38 °FPassing clouds.7 mph90%29.81 "Hg6 mi
Weather by CustomWeather, © 2014

See weather overviewHow to use our weather pages